Time,TemperatureF,DewpointF,PressureIn,WindDirection,WindDirectionDegrees,WindSpeedMPH,WindSpeedGustMPH,Humidity,HourlyPrecipIn,Conditions,Clouds,dailyrainin,SoftwareType,DateUTC
2013-04-01 00:03:00,49.5,31.1,29.89,NW,315,2.3,2.3,49,0.00,RA,,0.00,WeatherDisplay:10.37,2013-04-01 05:03:00,
2013-04-01 00:08:00,49.4,31.5,29.88,NW,315,1.2,0.0,50,0.00,RA,,0.00,WeatherDisplay:10.37,2013-04-01 05:08:00,
2013-04-01 00:13:00,49.3,31.4,29.89,NW,315,0.0,0.0,50,0.00,CLR,,0.00,WeatherDisplay:10.37,2013-04-01 05:13:00,
2013-04-01 00:18:00,49.3,30.9,29.89,NW,315,1.2,0.0,49,0.00,CLR,,0.00,WeatherDisplay:10.37,2013-04-01 05:18:00,
2013-04-01 00:23:00,49.6,31.2,29.89,NW,315,3.5,3.5,49,0.00,CLR,,0.00,WeatherDisplay:10.37,2013-04-01 05:23:00,
2013-04-01 00:28:00,49.7,30.3,29.89,NW,315,4.6,4.6,47,0.00,CLR,,0.00,WeatherDisplay:10.37,2013-04-01 05:28:00,
2013-04-01 00:33:00,49.9,30.5,29.89,NW,315,3.5,3.5,47,0.00,CLR,,0.00,WeatherDisplay:10.37,2013-04-01 05:33:00,
2013-04-01 00:38:00,49.8,30.4,29.90,NW,315,4.6,4.6,47,0.00,CLR,,0.00,WeatherDisplay:10.37,2013-04-01 05:38:00,
2013-04-01 00:43:00,49.9,30.5,29.91,NW,315,3.5,3.5,47,0.00,CLR,,0.00,WeatherDisplay:10.37,2013-04-01 05:43:00,
2013-04-01 00:48:00,49.9,29.9,29.91,NW,317,5.8,5.8,46,0.00,CLR,,0.00,WeatherDisplay:10.37,2013-04-01 05:48:00,
2013-04-01 00:53:00,49.9,30.5,29.91,NW,321,5.8,5.8,47,0.00,CLR,,0.00,WeatherDisplay:10.37,2013-04-01 05:53:00,
2013-04-01 00:58:00,49.6,30.2,29.91,NW,322,3.5,3.5,47,0.00,CLR,,0.00,WeatherDisplay:10.37,2013-04-01 05:58:00,
2013-04-01 01:03:00,49.3,30.4,29.92,NNW,328,10.0,10.0,48,0.00,CLR,,0.00,WeatherDisplay:10.37,2013-04-01 06:03:00,
2013-04-01 01:08:00,48.8,31.0,29.93,North,5,13.8,13.8,50,0.00,CLR,,0.00,WeatherDisplay:10.37,2013-04-01 06:08:00,
2013-04-01 01:13:00,48.3,31.0,29.93,NNE,24,9.2,9.2,51,0.00,CLR,,0.00,WeatherDisplay:10.37,2013-04-01 06:13:00,
2013-04-01 01:18:00,47.9,31.1,29.94,North,360,12.7,12.7,52,0.00,CLR,,0.00,WeatherDisplay:10.37,2013-04-01 06:18:00,
2013-04-01 01:23:00,47.6,31.3,29.94,North,5,11.5,11.5,53,0.00,CLR,,0.00,WeatherDisplay:10.37,2013-04-01 06:23:00,
2013-04-01 01:28:00,47.2,31.4,29.94,North,360,11.5,11.5,54,0.00,CLR,,0.00,WeatherDisplay:10.37,2013-04-01 06:28:00,
2013-04-01 01:33:00,46.7,31.8,29.95,North,10,11.5,11.5,56,0.00,CLR,,0.00,WeatherDisplay:10.37,2013-04-01 06:33:00,
2013-04-01 01:38:00,46.3,31.9,29.95,NNE,21,12.7,12.7,57,0.00,CLR,,0.00,WeatherDisplay:10.37,2013-04-01 06:38:00,
2013-04-01 01:43:00,46.1,32.1,29.95,North,360,18.4,18.4,58,0.00,CLR,,0.00,WeatherDisplay:10.37,2013-04-01 06:43:00,
2013-04-01 01:48:00,45.9,31.9,29.96,NNE,12,8.1,8.1,58,0.00,CLR,,0.00,WeatherDisplay:10.37,2013-04-01 06:48:00,
2013-04-01 01:53:00,45.8,32.3,29.97,NNE,13,13.8,13.8,59,0.00,CLR,,0.00,WeatherDisplay:10.37,2013-04-01 06:53:00,
2013-04-01 01:58:00,45.7,32.6,29.97,North,10,9.2,9.2,60,0.00,CLR,,0.00,WeatherDisplay:10.37,2013-04-01 06:58:00,
2013-04-01 02:03:00,45.6,32.5,29.97,NNE,13,5.8,5.8,60,0.00,CLR,,0.00,WeatherDisplay:10.37,2013-04-01 07:03:00,
2013-04-01 02:08:00,45.5,32.4,29.97,North,5,12.7,12.7,60,0.00,CLR,,0.00,WeatherDisplay:10.37,2013-04-01 07:08:00,
2013-04-01 02:13:00,45.2,32.5,29.97,NNE,19,11.5,11.5,61,0.00,CLR,,0.00,WeatherDisplay:10.37,2013-04-01 07:13:00,
2013-04-01 02:19:00,45.0,32.3,29.97,North,360,9.2,9.2,61,0.00,CLR,,0.00,WeatherDisplay:10.37,2013-04-01 07:19:00,
2013-04-01 02:24:00,44.9,32.7,29.98,North,5,11.5,11.5,62,0.00,CLR,,0.00,WeatherDisplay:10.37,2013-04-01 07:24:00,
2013-04-01 02:29:00,44.7,32.9,29.99,North,360,11.0,11.0,63,0.00,CLR,,0.00,WeatherDisplay:10.37,2013-04-01 07:29:00,
2013-04-01 02:34:00,44.6,33.2,29.99,NNE,14,6.9,6.9,64,0.00,CLR,,0.00,WeatherDisplay:10.37,2013-04-01 07:34:00,
2013-04-01 02:39:00,44.5,33.1,29.99,North,360,14.0,14.0,64,0.00,CLR,,0.00,WeatherDisplay:10.37,2013-04-01 07:39:00,
2013-04-01 02:44:00,44.4,33.4,29.99,North,355,9.2,9.2,65,0.00,CLR,,0.00,WeatherDisplay:10.37,2013-04-01 07:44:00,
2013-04-01 02:49:00,44.2,33.6,29.99,North,5,4.6,5.5,66,0.00,CLR,,0.00,WeatherDisplay:10.37,2013-04-01 07:49:00,
2013-04-01 02:54:00,44.0,33.7,29.99,North,5,4.6,4.6,67,0.00,CLR,,0.00,WeatherDisplay:10.37,2013-04-01 07:54:00,
2013-04-01 02:59:00,43.8,33.9,29.99,North,5,8.1,8.1,68,0.00,CLR,,0.00,WeatherDisplay:10.37,2013-04-01 07:59:00,
2013-04-01 03:04:00,43.6,34.1,29.99,North,9,13.8,13.8,69,0.00,CLR,,0.00,WeatherDisplay:10.37,2013-04-01 08:04:00,
2013-04-01 03:09:00,43.3,34.2,29.99,North,5,17.3,17.3,70,0.00,CLR,,0.00,WeatherDisplay:10.37,2013-04-01 08:09:00,
2013-04-01 03:14:00,43.1,34.3,29.99,North,360,12.7,12.7,71,0.00,CLR,,0.00,WeatherDisplay:10.37,2013-04-01 08:14:00,
2013-04-01 03:19:00,42.8,34.0,29.99,NNE,17,10.0,10.0,71,0.00,CLR,,0.00,WeatherDisplay:10.37,2013-04-01 08:19:00,
2013-04-01 03:24:00,42.4,34.0,29.99,NNE,18,11.5,11.5,72,0.00,CLR,,0.00,WeatherDisplay:10.37,2013-04-01 08:24:00,
2013-04-01 03:29:00,42.0,34.0,29.99,NNE,23,11.5,11.5,73,0.00,CLR,,0.00,WeatherDisplay:10.37,2013-04-01 08:29:00,
2013-04-01 03:34:00,41.8,34.1,30.00,NNE,22,5.0,5.0,74,0.00,CLR,,0.00,WeatherDisplay:10.37,2013-04-01 08:34:00,
2013-04-01 03:39:00,41.6,33.9,30.00,NNE,17,11.5,11.5,74,0.00,CLR,,0.00,WeatherDisplay:10.37,2013-04-01 08:39:00,
2013-04-01 03:44:00,41.5,34.2,30.00,NNE,13,5.8,5.8,75,0.00,CLR,,0.00,WeatherDisplay:10.37,2013-04-01 08:44:00,
2013-04-01 03:49:00,41.3,34.0,30.01,North,360,12.7,12.7,75,0.00,CLR,,0.00,WeatherDisplay:10.37,2013-04-01 08:49:00,
2013-04-01 03:54:00,41.2,34.2,30.01,North,5,3.5,3.7,76,0.00,CLR,,0.00,WeatherDisplay:10.37,2013-04-01 08:54:00,
2013-04-01 03:59:00,41.1,34.1,30.01,North,360,9.2,9.2,76,0.00,CLR,,0.00,WeatherDisplay:10.37,2013-04-01 08:59:00,
2013-04-01 04:04:00,40.9,34.2,30.01,North,360,12.7,12.7,77,0.00,CLR,,0.00,WeatherDisplay:10.37,2013-04-01 09:04:00,
2013-04-01 04:09:00,40.7,34.0,30.01,North,10,11.5,11.5,77,0.00,CLR,,0.00,WeatherDisplay:10.37,2013-04-01 09:09:00,
2013-04-01 04:14:00,40.5,34.2,30.01,North,10,11.5,11.5,78,0.00,CLR,,0.00,WeatherDisplay:10.37,2013-04-01 09:14:00,
2013-04-01 04:19:00,40.4,34.1,30.02,North,10,8.1,8.1,78,0.00,CLR,,0.00,WeatherDisplay:10.37,2013-04-01 09:19:00,
2013-04-01 04:24:00,40.1,33.8,30.02,North,11,9.2,9.2,78,0.00,CLR,,0.00,WeatherDisplay:10.37,2013-04-01 09:24:00,
2013-04-01 04:29:00,39.8,33.8,30.02,North,10,11.5,11.5,79,0.00,CLR,,0.00,WeatherDisplay:10.37,2013-04-01 09:29:00,
2013-04-01 04:34:00,39.6,33.6,30.02,North,10,6.9,6.9,79,0.00,CLR,,0.00,WeatherDisplay:10.37,2013-04-01 09:34:00,
2013-04-01 04:39:00,39.4,33.4,30.03,North,360,10.4,10.4,79,0.00,CLR,,0.00,WeatherDisplay:10.37,2013-04-01 09:39:00,
2013-04-01 04:44:00,39.3,33.6,30.03,North,5,11.0,11.0,80,0.00,CLR,,0.00,WeatherDisplay:10.37,2013-04-01 09:44:00,
2013-04-01 04:49:00,39.2,33.2,30.03,North,360,9.0,9.0,79,0.00,CLR,,0.00,WeatherDisplay:10.37,2013-04-01 09:49:00,
2013-04-01 04:54:00,39.0,33.0,30.04,North,360,13.8,13.8,79,0.00,CLR,,0.00,WeatherDisplay:10.37,2013-04-01 09:54:00,
2013-04-01 04:59:00,38.8,32.8,30.04,NNW,342,19.6,19.6,79,0.00,CLR,,0.00,WeatherDisplay:10.37,2013-04-01 09:59:00,
2013-04-01 05:04:00,38.6,33.0,30.04,North,360,15.0,15.0,80,0.00,CLR,,0.00,WeatherDisplay:10.37,2013-04-01 10:04:00,
2013-04-01 05:10:00,38.3,32.7,30.05,North,11,11.5,11.5,80,0.00,CLR,,0.00,WeatherDisplay:10.37,2013-04-01 10:10:00,
2013-04-01 05:15:00,38.1,32.5,30.05,North,350,13.8,13.8,80,0.00,CLR,,0.00,WeatherDisplay:10.37,2013-04-01 10:15:00,
2013-04-01 05:20:00,37.7,32.1,30.06,North,355,12.7,12.7,80,0.00,CLR,,0.00,WeatherDisplay:10.37,2013-04-01 10:20:00,
2013-04-01 05:25:00,37.5,31.6,30.06,North,355,10.4,10.4,79,0.00,CLR,,0.00,WeatherDisplay:10.37,2013-04-01 10:25:00,
2013-04-01 05:30:00,37.4,31.5,30.06,North,355,10.4,10.4,79,0.00,CLR,,0.00,WeatherDisplay:10.37,2013-04-01 10:30:00,
2013-04-01 05:35:00,37.1,31.2,30.06,North,360,11.5,11.5,79,0.00,CLR,,0.00,WeatherDisplay:10.37,2013-04-01 10:35:00,
2013-04-01 05:40:00,36.9,31.0,30.06,North,360,11.5,11.5,79,0.00,CLR,,0.00,WeatherDisplay:10.37,2013-04-01 10:40:00,
2013-04-01 05:45:00,36.8,30.9,30.07,North,5,10.4,10.4,79,0.00,CLR,,0.00,WeatherDisplay:10.37,2013-04-01 10:45:00,
2013-04-01 05:50:00,36.8,31.2,30.07,North,5,9.2,9.2,80,0.00,CLR,,0.00,WeatherDisplay:10.37,2013-04-01 10:50:00,
2013-04-01 05:55:00,36.6,31.0,30.07,North,5,6.9,6.9,80,0.00,CLR,,0.00,WeatherDisplay:10.37,2013-04-01 10:55:00,
2013-04-01 06:00:00,36.3,31.0,30.08,North,360,10.4,10.4,81,0.00,CLR,,0.00,WeatherDisplay:10.37,2013-04-01 11:00:00,
2013-04-01 06:05:00,36.0,30.7,30.08,NNW,338,9.2,9.2,81,0.00,CLR,,0.00,WeatherDisplay:10.37,2013-04-01 11:05:00,
2013-04-01 06:10:00,35.8,30.5,30.09,NNW,344,11.5,11.5,81,0.00,CLR,,0.00,WeatherDisplay:10.37,2013-04-01 11:10:00,
2013-04-01 06:15:00,35.7,30.4,30.10,North,351,6.0,8.0,81,0.00,CLR,,0.00,WeatherDisplay:10.37,2013-04-01 11:15:00,
2013-04-01 06:20:00,35.5,30.2,30.10,North,353,3.0,9.0,81,0.00,CLR,,0.00,WeatherDisplay:10.37,2013-04-01 11:20:00,
2013-04-01 06:25:00,35.2,30.0,30.10,North,360,5.8,5.8,81,0.00,CLR,,0.00,WeatherDisplay:10.37,2013-04-01 11:25:00,
2013-04-01 06:30:00,34.9,28.7,30.10,North,360,11.5,11.5,78,0.00,CLR,,0.00,WeatherDisplay:10.37,2013-04-01 11:30:00,
2013-04-01 06:35:00,34.4,27.0,30.11,North,355,5.8,5.8,74,0.00,CLR,,0.00,WeatherDisplay:10.37,2013-04-01 11:35:00,
2013-04-01 06:40:00,34.4,26.0,30.11,North,355,11.5,11.5,71,0.00,CLR,,0.00,WeatherDisplay:10.37,2013-04-01 11:40:00,
2013-04-01 06:45:00,34.4,26.0,30.11,North,360,10.4,10.4,71,0.00,CLR,,0.00,WeatherDisplay:10.37,2013-04-01 11:45:00,
2013-04-01 06:50:00,34.1,25.3,30.12,North,351,5.8,5.8,70,0.00,CLR,,0.00,WeatherDisplay:10.37,2013-04-01 11:50:00,
2013-04-01 06:55:00,33.9,25.1,30.12,North,355,10.4,10.4,70,0.00,CLR,,0.00,WeatherDisplay:10.37,2013-04-01 11:55:00,
2013-04-01 07:00:00,33.7,24.3,30.13,North,355,6.0,6.0,68,0.00,CLR,,0.00,WeatherDisplay:10.37,2013-04-01 12:00:00,
2013-04-01 07:05:00,33.6,23.4,30.13,North,349,11.5,11.5,66,0.00,CLR,,0.00,WeatherDisplay:10.37,2013-04-01 12:05:00,
2013-04-01 07:10:00,33.6,23.1,30.14,North,360,4.6,4.6,65,0.00,CLR,,0.00,WeatherDisplay:10.37,2013-04-01 12:10:00,
2013-04-01 07:15:00,33.5,23.4,30.14,North,5,11.5,11.5,66,0.00,CLR,,0.00,WeatherDisplay:10.37,2013-04-01 12:15:00,
2013-04-01 07:20:00,33.5,23.4,30.14,North,360,9.2,9.2,66,0.00,CLR,,0.00,WeatherDisplay:10.37,2013-04-01 12:20:00,
2013-04-01 07:25:00,33.5,23.7,30.14,North,360,6.9,6.9,67,0.00,CLR,,0.00,WeatherDisplay:10.37,2013-04-01 12:25:00,
2013-04-01 07:30:00,33.5,24.1,30.15,NNW,348,11.5,11.5,68,0.00,CLR,,0.00,WeatherDisplay:10.37,2013-04-01 12:30:00,
2013-04-01 07:35:00,33.5,24.1,30.15,North,360,13.8,13.8,68,0.00,CLR,,0.00,WeatherDisplay:10.37,2013-04-01 12:35:00,
2013-04-01 07:40:00,33.5,24.4,30.15,North,360,4.6,4.6,69,0.00,CLR,,0.00,WeatherDisplay:10.37,2013-04-01 12:40:00,
2013-04-01 07:45:00,33.7,24.6,30.15,North,360,3.5,3.5,69,0.00,CLR,,0.00,WeatherDisplay:10.37,2013-04-01 12:45:00,
2013-04-01 07:50:00,33.7,23.5,30.16,North,5,11.5,11.5,66,0.00,CLR,,0.00,WeatherDisplay:10.37,2013-04-01 12:50:00,
2013-04-01 07:55:00,33.6,22.3,30.16,North,5,12.7,12.7,63,0.00,CLR,,0.00,WeatherDisplay:10.37,2013-04-01 12:55:00,
2013-04-01 08:00:00,33.6,20.8,30.17,North,360,15.0,15.0,59,0.00,CLR,,0.00,WeatherDisplay:10.37,2013-04-01 13:00:00,
2013-04-01 08:05:00,33.7,20.9,30.17,North,360,6.9,6.9,59,0.00,CLR,,0.00,WeatherDisplay:10.37,2013-04-01 13:05:00,
2013-04-01 08:10:00,33.8,21.0,30.16,North,360,4.6,4.6,59,0.00,CLR,,0.00,WeatherDisplay:10.37,2013-04-01 13:10:00,
2013-04-01 08:15:00,33.9,21.5,30.17,North,355,11.5,11.5,60,0.00,CLR,,0.00,WeatherDisplay:10.37,2013-04-01 13:15:00,
2013-04-01 08:20:00,33.8,21.8,30.17,North,355,6.9,6.9,61,0.00,CLR,,0.00,WeatherDisplay:10.37,2013-04-01 13:20:00,
2013-04-01 08:25:00,33.9,21.9,30.17,North,355,10.4,10.4,61,0.00,CLR,,0.00,WeatherDisplay:10.37,2013-04-01 13:25:00,
2013-04-01 08:30:00,33.8,22.5,30.17,North,10,8.1,8.1,63,0.00,CLR,,0.00,WeatherDisplay:10.37,2013-04-01 13:30:00,
2013-04-01 08:35:00,33.7,21.3,30.17,North,9,6.9,6.9,60,0.00,CLR,,0.00,WeatherDisplay:10.37,2013-04-01 13:35:00,
2013-04-01 08:40:00,33.6,21.2,30.17,North,360,11.0,11.0,60,0.00,CLR,,0.00,WeatherDisplay:10.37,2013-04-01 13:40:00,
2013-04-01 08:45:00,33.5,21.1,30.17,North,360,11.5,11.5,60,0.00,CLR,,0.00,WeatherDisplay:10.37,2013-04-01 13:45:00,
2013-04-01 08:50:00,33.8,22.5,30.18,North,360,13.8,13.8,63,0.00,CLR,,0.00,WeatherDisplay:10.37,2013-04-01 13:50:00,
2013-04-01 08:55:00,33.8,21.4,30.18,North,360,5.8,5.8,60,0.00,CLR,,0.00,WeatherDisplay:10.37,2013-04-01 13:55:00,
2013-04-01 09:00:00,34.0,22.0,30.18,North,360,4.6,4.6,61,0.00,CLR,,0.00,WeatherDisplay:10.37,2013-04-01 14:00:00,
2013-04-01 09:05:00,34.1,22.0,30.18,North,360,5.0,5.0,61,0.00,CLR,,0.00,WeatherDisplay:10.37,2013-04-01 14:05:00,
2013-04-01 09:10:00,34.4,22.3,30.18,North,360,6.9,6.9,61,0.00,CLR,,0.00,WeatherDisplay:10.37,2013-04-01 14:10:00,
2013-04-01 09:15:00,34.4,21.9,30.19,North,360,9.2,9.2,60,0.00,CLR,,0.00,WeatherDisplay:10.37,2013-04-01 14:15:00,
2013-04-01 09:21:00,34.6,21.7,30.19,North,360,5.0,5.0,59,0.00,CLR,,0.00,WeatherDisplay:10.37,2013-04-01 14:21:00,
2013-04-01 09:26:00,34.7,20.6,30.18,North,5,11.0,11.0,56,0.00,CLR,,0.00,WeatherDisplay:10.37,2013-04-01 14:26:00,
2013-04-01 09:31:00,34.4,20.3,30.19,North,360,8.1,8.1,56,0.00,CLR,,0.00,WeatherDisplay:10.37,2013-04-01 14:31:00,
2013-04-01 09:36:00,34.9,19.5,30.18,North,5,9.2,9.2,53,0.00,CLR,,0.00,WeatherDisplay:10.37,2013-04-01 14:36:00,
2013-04-01 09:41:00,35.3,18.5,30.19,North,360,4.6,4.6,50,0.00,CLR,,0.00,WeatherDisplay:10.37,2013-04-01 14:41:00,
2013-04-01 09:46:00,35.8,19.9,30.19,North,360,5.8,5.8,52,0.00,CLR,,0.00,WeatherDisplay:10.37,2013-04-01 14:46:00,
2013-04-01 09:51:00,35.7,19.3,30.19,North,360,11.5,11.5,51,0.00,CLR,,0.00,WeatherDisplay:10.37,2013-04-01 14:51:00,
2013-04-01 09:56:00,35.8,19.4,30.19,North,5,3.5,3.6,51,0.00,CLR,,0.00,WeatherDisplay:10.37,2013-04-01 14:56:00,
2013-04-01 10:01:00,36.1,20.2,30.19,North,9,5.8,5.8,52,0.00,CLR,,0.00,WeatherDisplay:10.37,2013-04-01 15:01:00,
2013-04-01 10:07:00,36.8,19.9,30.19,North,360,6.9,6.9,50,0.00,CLR,,0.00,WeatherDisplay:10.37,2013-04-01 15:07:00,
2013-04-01 10:12:00,36.4,19.5,30.19,North,360,9.2,9.2,50,0.00,CLR,,0.00,WeatherDisplay:10.37,2013-04-01 15:12:00,
2013-04-01 10:18:00,36.8,19.9,30.19,North,9,11.5,11.5,50,0.00,CLR,,0.00,WeatherDisplay:10.37,2013-04-01 15:18:00,
2013-04-01 10:23:00,36.7,19.8,30.19,North,355,5.8,5.8,50,0.00,CLR,,0.00,WeatherDisplay:10.37,2013-04-01 15:23:00,
2013-04-01 10:28:00,36.6,19.7,30.18,North,355,5.0,5.0,50,0.00,CLR,,0.00,WeatherDisplay:10.37,2013-04-01 15:28:00,
2013-04-01 10:33:00,36.5,19.6,30.19,North,350,5.8,5.8,50,0.00,CLR,,0.00,WeatherDisplay:10.37,2013-04-01 15:33:00,
2013-04-01 10:38:00,36.5,18.2,30.19,North,355,11.5,11.5,47,0.00,CLR,,0.00,WeatherDisplay:10.37,2013-04-01 15:38:00,
2013-04-01 10:43:00,36.5,17.7,30.19,North,355,13.8,13.8,46,0.00,CLR,,0.00,WeatherDisplay:10.37,2013-04-01 15:43:00,
2013-04-01 10:48:00,36.8,16.9,30.19,North,355,11.5,11.5,44,0.00,CLR,,0.00,WeatherDisplay:10.37,2013-04-01 15:48:00,
2013-04-01 10:53:00,36.9,16.5,30.19,North,355,4.6,4.6,43,0.00,CLR,,0.00,WeatherDisplay:10.37,2013-04-01 15:53:00,
2013-04-01 10:58:00,37.3,16.3,30.19,North,360,11.5,11.5,42,0.00,CLR,,0.00,WeatherDisplay:10.37,2013-04-01 15:58:00,
2013-04-01 11:03:00,38.0,17.5,30.19,North,360,5.8,5.8,43,0.00,CLR,,0.00,WeatherDisplay:10.37,2013-04-01 16:03:00,
2013-04-01 11:08:00,38.0,17.5,30.20,North,355,5.8,5.8,43,0.00,CLR,,0.00,WeatherDisplay:10.37,2013-04-01 16:08:00,
2013-04-01 11:13:00,38.0,18.0,30.20,North,355,10.4,10.4,44,0.00,CLR,,0.00,WeatherDisplay:10.37,2013-04-01 16:13:00,
2013-04-01 11:18:00,38.3,19.3,30.19,North,355,3.5,3.5,46,0.00,CLR,,0.00,WeatherDisplay:10.37,2013-04-01 16:18:00,
2013-04-01 11:23:00,38.3,18.3,30.19,North,355,3.5,3.5,44,0.00,CLR,,0.00,WeatherDisplay:10.37,2013-04-01 16:23:00,
2013-04-01 11:28:00,38.8,17.1,30.20,North,355,11.5,11.5,41,0.00,CLR,,0.00,WeatherDisplay:10.37,2013-04-01 16:28:00,
2013-04-01 11:33:00,38.6,17.5,30.20,North,355,4.6,4.6,42,0.00,CLR,,0.00,WeatherDisplay:10.37,2013-04-01 16:33:00,
2013-04-01 11:38:00,38.7,15.8,30.20,North,355,5.8,5.8,39,0.00,CLR,,0.00,WeatherDisplay:10.37,2013-04-01 16:38:00,
2013-04-01 11:43:00,39.2,18.0,30.20,North,355,9.2,9.2,42,0.00,CLR,,0.00,WeatherDisplay:10.37,2013-04-01 16:43:00,
2013-04-01 11:48:00,39.3,15.8,30.20,North,355,9.2,9.2,38,0.00,CLR,,0.00,WeatherDisplay:10.37,2013-04-01 16:48:00,
2013-04-01 11:53:00,38.9,16.6,30.20,North,355,3.5,3.5,40,0.00,CLR,,0.00,WeatherDisplay:10.37,2013-04-01 16:53:00,
2013-04-01 11:58:00,39.9,16.3,30.20,North,355,11.0,11.0,38,0.00,CLR,,0.00,WeatherDisplay:10.37,2013-04-01 16:58:00,
2013-04-01 12:03:00,40.1,15.9,30.20,North,355,10.4,10.4,37,0.00,CLR,,0.00,WeatherDisplay:10.37,2013-04-01 17:03:00,
2013-04-01 12:08:00,39.3,15.8,30.20,North,355,6.9,6.9,38,0.00,CLR,,0.00,WeatherDisplay:10.37,2013-04-01 17:08:00,
2013-04-01 12:13:00,39.0,15.5,30.20,North,360,10.4,10.4,38,0.00,CLR,,0.00,WeatherDisplay:10.37,2013-04-01 17:13:00,
2013-04-01 12:18:00,39.1,16.2,30.20,North,360,6.9,6.9,39,0.00,CLR,,0.00,WeatherDisplay:10.37,2013-04-01 17:18:00,
2013-04-01 12:23:00,39.5,16.0,30.20,North,360,8.1,8.1,38,0.00,CLR,,0.00,WeatherDisplay:10.37,2013-04-01 17:23:00,
2013-04-01 12:28:00,40.2,16.0,30.20,North,360,11.5,11.5,37,0.00,CLR,,0.00,WeatherDisplay:10.37,2013-04-01 17:28:00,
2013-04-01 12:33:00,40.8,15.9,30.20,North,360,9.2,9.2,36,0.00,CLR,,0.00,WeatherDisplay:10.37,2013-04-01 17:33:00,
2013-04-01 12:38:00,40.8,15.9,30.19,North,360,5.8,5.8,36,0.00,CLR,,0.00,WeatherDisplay:10.37,2013-04-01 17:38:00,
2013-04-01 12:43:00,40.6,16.3,30.19,North,360,5.8,5.8,37,0.00,CLR,,0.00,WeatherDisplay:10.37,2013-04-01 17:43:00,
2013-04-01 12:48:00,41.1,17.4,30.19,North,5,11.5,11.5,38,0.00,CLR,,0.00,WeatherDisplay:10.37,2013-04-01 17:48:00,
2013-04-01 12:53:00,40.9,17.2,30.19,North,360,7.0,7.0,38,0.00,CLR,,0.00,WeatherDisplay:10.37,2013-04-01 17:53:00,
2013-04-01 12:58:00,40.6,17.5,30.19,North,5,15.0,15.0,39,0.00,CLR,,0.00,WeatherDisplay:10.37,2013-04-01 17:58:00,
2013-04-01 13:03:00,41.0,18.5,30.19,North,5,10.4,10.4,40,0.00,CLR,,0.00,WeatherDisplay:10.37,2013-04-01 18:03:00,
2013-04-01 13:08:00,41.3,18.8,30.19,North,5,4.0,4.0,40,0.00,CLR,,0.00,WeatherDisplay:10.37,2013-04-01 18:08:00,
2013-04-01 13:13:00,41.1,18.6,30.19,North,5,9.2,9.2,40,0.00,CLR,,0.00,WeatherDisplay:10.37,2013-04-01 18:13:00,
2013-04-01 13:18:00,41.3,19.3,30.19,North,9,8.0,8.0,41,0.00,CLR,,0.00,WeatherDisplay:10.37,2013-04-01 18:18:00,
2013-04-01 13:23:00,41.4,19.4,30.19,North,360,6.0,6.0,41,0.00,CLR,,0.00,WeatherDisplay:10.37,2013-04-01 18:23:00,
2013-04-01 13:29:00,41.5,19.5,30.19,North,360,4.6,4.6,41,0.00,CLR,,0.00,WeatherDisplay:10.37,2013-04-01 18:29:00,
2013-04-01 13:34:00,41.8,18.6,30.19,North,360,4.6,4.6,39,0.00,CLR,,0.00,WeatherDisplay:10.37,2013-04-01 18:34:00,
2013-04-01 13:39:00,41.9,18.7,30.19,North,360,11.5,11.5,39,0.00,CLR,,0.00,WeatherDisplay:10.37,2013-04-01 18:39:00,
2013-04-01 13:44:00,42.3,17.8,30.19,North,360,6.9,6.9,37,0.00,CLR,,0.00,WeatherDisplay:10.37,2013-04-01 18:44:00,
2013-04-01 13:49:00,42.9,18.4,30.19,North,360,6.9,6.9,37,0.00,CLR,,0.00,WeatherDisplay:10.37,2013-04-01 18:49:00,
2013-04-01 13:54:00,43.6,20.2,30.19,North,360,2.3,0.0,39,0.00,CLR,,0.00,WeatherDisplay:10.37,2013-04-01 18:54:00,
2013-04-01 13:59:00,43.7,19.1,30.19,North,360,4.0,4.0,37,0.00,CLR,,0.00,WeatherDisplay:10.37,2013-04-01 18:59:00,
2013-04-01 14:04:00,43.0,18.5,30.20,North,360,6.9,6.9,37,0.00,CLR,,0.00,WeatherDisplay:10.37,2013-04-01 19:04:00,
2013-04-01 14:09:00,43.7,19.1,30.20,North,360,4.6,4.6,37,0.00,CLR,,0.00,WeatherDisplay:10.37,2013-04-01 19:09:00,
2013-04-01 14:14:00,44.1,19.5,30.20,North,360,2.3,2.3,37,0.00,CLR,,0.00,WeatherDisplay:10.37,2013-04-01 19:14:00,
2013-04-01 14:19:00,44.5,17.8,30.20,North,360,8.0,8.0,34,0.00,CLR,,0.00,WeatherDisplay:10.37,2013-04-01 19:19:00,
2013-04-01 14:24:00,44.3,17.0,30.20,North,360,6.9,6.9,33,0.00,CLR,,0.00,WeatherDisplay:10.37,2013-04-01 19:24:00,
2013-04-01 14:29:00,44.0,16.7,30.19,North,360,4.0,4.0,33,0.00,CLR,,0.00,WeatherDisplay:10.37,2013-04-01 19:29:00,
2013-04-01 14:34:00,44.2,18.9,30.19,North,360,6.9,6.9,36,0.00,CLR,,0.00,WeatherDisplay:10.37,2013-04-01 19:34:00,
2013-04-01 14:39:00,44.5,17.8,30.19,North,355,5.8,5.8,34,0.00,CLR,,0.00,WeatherDisplay:10.37,2013-04-01 19:39:00,
2013-04-01 14:44:00,43.9,18.0,30.19,North,355,5.8,5.8,35,0.00,CLR,,0.00,WeatherDisplay:10.37,2013-04-01 19:44:00,
2013-04-01 14:49:00,43.8,19.2,30.19,North,355,8.1,8.1,37,0.00,CLR,,0.00,WeatherDisplay:10.37,2013-04-01 19:49:00,
2013-04-01 14:54:00,44.3,19.0,30.19,North,355,3.5,3.5,36,0.00,CLR,,0.00,WeatherDisplay:10.37,2013-04-01 19:54:00,
2013-04-01 14:59:00,44.9,20.2,30.19,North,355,5.0,5.0,37,0.00,CLR,,0.00,WeatherDisplay:10.37,2013-04-01 19:59:00,
2013-04-01 15:04:00,45.2,19.8,30.19,North,355,6.9,6.9,36,0.00,CLR,,0.00,WeatherDisplay:10.37,2013-04-01 20:04:00,
2013-04-01 15:09:00,45.4,19.3,30.18,North,355,5.8,5.8,35,0.00,CLR,,0.00,WeatherDisplay:10.37,2013-04-01 20:09:00,
2013-04-01 15:14:00,45.5,20.1,30.18,North,355,3.5,3.5,36,0.00,CLR,,0.00,WeatherDisplay:10.37,2013-04-01 20:14:00,
2013-04-01 15:19:00,45.8,20.3,30.18,North,355,5.8,5.8,36,0.00,CLR,,0.00,WeatherDisplay:10.37,2013-04-01 20:19:00,
2013-04-01 15:24:00,45.2,20.4,30.17,North,355,10.4,10.4,37,0.00,CLR,,0.00,WeatherDisplay:10.37,2013-04-01 20:24:00,
2013-04-01 15:29:00,45.1,19.7,30.17,North,355,6.9,6.9,36,0.00,CLR,,0.00,WeatherDisplay:10.37,2013-04-01 20:29:00,
2013-04-01 15:34:00,45.3,19.2,30.17,North,355,3.5,3.5,35,0.00,CLR,,0.00,WeatherDisplay:10.37,2013-04-01 20:34:00,
2013-04-01 15:39:00,45.5,19.4,30.17,North,355,5.8,5.8,35,0.00,CLR,,0.00,WeatherDisplay:10.37,2013-04-01 20:39:00,
2013-04-01 15:44:00,46.1,19.2,30.17,North,355,7.0,7.0,34,0.00,CLR,,0.00,WeatherDisplay:10.37,2013-04-01 20:44:00,
2013-04-01 15:49:00,46.3,18.7,30.17,North,355,7.0,7.0,33,0.00,CLR,,0.00,WeatherDisplay:10.37,2013-04-01 20:49:00,
2013-04-01 15:54:00,46.4,20.2,30.17,North,355,4.6,4.6,35,0.00,CLR,,0.00,WeatherDisplay:10.37,2013-04-01 20:54:00,
2013-04-01 15:59:00,46.4,19.5,30.17,North,350,4.6,4.6,34,0.00,CLR,,0.00,WeatherDisplay:10.37,2013-04-01 20:59:00,
2013-04-01 16:04:00,46.3,19.4,30.17,North,350,10.0,10.0,34,0.00,CLR,,0.00,WeatherDisplay:10.37,2013-04-01 21:04:00,
2013-04-01 16:09:00,45.2,19.1,30.16,North,355,5.8,5.8,35,0.00,CLR,,0.00,WeatherDisplay:10.37,2013-04-01 21:09:00,
2013-04-01 16:14:00,45.0,20.9,30.16,North,355,3.5,3.5,38,0.00,CLR,,0.00,WeatherDisplay:10.37,2013-04-01 21:14:00,
2013-04-01 16:19:00,45.5,19.4,30.16,North,355,10.4,10.4,35,0.00,CLR,,0.00,WeatherDisplay:10.37,2013-04-01 21:19:00,
2013-04-01 16:24:00,45.1,19.7,30.16,North,355,5.8,5.8,36,0.00,CLR,,0.00,WeatherDisplay:10.37,2013-04-01 21:24:00,
2013-04-01 16:29:00,45.5,20.1,30.16,North,350,10.4,10.4,36,0.00,CLR,,0.00,WeatherDisplay:10.37,2013-04-01 21:29:00,
2013-04-01 16:34:00,45.9,20.4,30.16,NNW,348,4.6,4.6,36,0.00,CLR,,0.00,WeatherDisplay:10.37,2013-04-01 21:34:00,
2013-04-01 16:39:00,46.3,20.1,30.15,NNW,346,9.2,9.2,35,0.00,CLR,,0.00,WeatherDisplay:10.37,2013-04-01 21:39:00,
2013-04-01 16:44:00,46.2,20.0,30.16,NNW,346,8.1,8.1,35,0.00,CLR,,0.00,WeatherDisplay:10.37,2013-04-01 21:44:00,
2013-04-01 16:49:00,45.4,19.3,30.15,NNW,348,3.5,3.5,35,0.00,CLR,,0.00,WeatherDisplay:10.37,2013-04-01 21:49:00,
2013-04-01 16:54:00,45.2,20.4,30.15,NNW,346,2.3,2.3,37,0.00,CLR,,0.00,WeatherDisplay:10.37,2013-04-01 21:54:00,
2013-04-01 16:59:00,44.9,19.5,30.15,NNW,348,5.8,5.8,36,0.00,CLR,,0.00,WeatherDisplay:10.37,2013-04-01 21:59:00,
2013-04-01 17:04:00,44.7,20.0,30.16,NNW,347,4.6,4.6,37,0.00,CLR,,0.00,WeatherDisplay:10.37,2013-04-01 22:04:00,
2013-04-01 17:09:00,44.9,20.2,30.15,NNW,347,3.5,3.5,37,0.00,CLR,,0.00,WeatherDisplay:10.37,2013-04-01 22:09:00,
2013-04-01 17:14:00,45.0,19.6,30.15,NNW,348,9.2,9.2,36,0.00,CLR,,0.00,WeatherDisplay:10.37,2013-04-01 22:14:00,
2013-04-01 17:19:00,44.9,20.2,30.15,NNW,346,5.8,5.8,37,0.00,CLR,,0.00,WeatherDisplay:10.37,2013-04-01 22:19:00,
2013-04-01 17:24:00,45.0,20.9,30.15,NNW,347,3.5,3.5,38,0.00,CLR,,0.00,WeatherDisplay:10.37,2013-04-01 22:24:00,
2013-04-01 17:29:00,45.4,21.2,30.15,NNW,347,2.3,2.3,38,0.00,CLR,,0.00,WeatherDisplay:10.37,2013-04-01 22:29:00,
2013-04-01 17:34:00,45.6,21.4,30.14,NNW,347,3.5,3.5,38,0.00,CLR,,0.00,WeatherDisplay:10.37,2013-04-01 22:34:00,
2013-04-01 17:39:00,45.6,20.8,30.14,NNW,346,8.1,8.1,37,0.00,CLR,,0.00,WeatherDisplay:10.37,2013-04-01 22:39:00,
2013-04-01 17:44:00,45.6,20.8,30.14,NNW,347,5.8,5.8,37,0.00,CLR,,0.00,WeatherDisplay:10.37,2013-04-01 22:44:00,
2013-04-01 17:49:00,45.3,20.5,30.14,NNW,348,6.9,6.9,37,0.00,CLR,,0.00,WeatherDisplay:10.37,2013-04-01 22:49:00,
2013-04-01 17:54:00,45.1,20.3,30.14,NNW,348,2.3,2.3,37,0.00,CLR,,0.00,WeatherDisplay:10.37,2013-04-01 22:54:00,
2013-04-01 17:59:00,45.1,19.7,30.14,NNW,348,4.0,4.0,36,0.00,CLR,,0.00,WeatherDisplay:10.37,2013-04-01 22:59:00,
2013-04-01 18:04:00,45.0,19.6,30.15,NNW,348,5.0,5.0,36,0.00,CLR,,0.00,WeatherDisplay:10.37,2013-04-01 23:04:00,
2013-04-01 18:09:00,44.9,19.5,30.15,NNW,347,3.5,3.5,36,0.00,CLR,,0.00,WeatherDisplay:10.37,2013-04-01 23:09:00,
2013-04-01 18:14:00,44.8,19.4,30.15,NNW,347,4.6,4.6,36,0.00,CLR,,0.00,WeatherDisplay:10.37,2013-04-01 23:14:00,
2013-04-01 18:19:00,44.8,20.1,30.15,NNW,348,6.9,6.9,37,0.00,CLR,,0.00,WeatherDisplay:10.37,2013-04-01 23:19:00,
2013-04-01 18:24:00,44.9,19.5,30.14,NNW,348,3.5,3.5,36,0.00,CLR,,0.00,WeatherDisplay:10.37,2013-04-01 23:24:00,
2013-04-01 18:29:00,44.9,20.2,30.14,NNW,348,9.2,9.2,37,0.00,CLR,,0.00,WeatherDisplay:10.37,2013-04-01 23:29:00,
2013-04-01 18:34:00,44.7,19.3,30.14,NNW,347,3.5,3.5,36,0.00,CLR,,0.00,WeatherDisplay:10.37,2013-04-01 23:34:00,
2013-04-01 18:39:00,44.5,19.8,30.14,NNW,347,5.8,5.8,37,0.00,CLR,,0.00,WeatherDisplay:10.37,2013-04-01 23:39:00,
2013-04-01 18:44:00,44.3,19.6,30.14,NNW,346,4.6,4.6,37,0.00,CLR,,0.00,WeatherDisplay:10.37,2013-04-01 23:44:00,
2013-04-01 18:49:00,44.2,20.2,30.14,NNW,347,3.5,3.5,38,0.00,CLR,,0.00,WeatherDisplay:10.37,2013-04-01 23:49:00,
2013-04-01 18:54:00,44.0,20.0,30.14,NNW,347,3.5,3.5,38,0.00,CLR,,0.00,WeatherDisplay:10.37,2013-04-01 23:54:00,
2013-04-01 18:59:00,43.8,19.8,30.14,NNW,348,3.5,3.5,38,0.00,CLR,,0.00,WeatherDisplay:10.37,2013-04-01 23:59:00,
2013-04-01 19:04:00,43.6,19.6,30.14,NNW,347,4.6,4.6,38,0.00,CLR,,0.00,WeatherDisplay:10.37,2013-04-02 00:04:00,
2013-04-01 19:09:00,43.5,19.5,30.14,NNW,347,6.0,6.0,38,0.00,CLR,,0.00,WeatherDisplay:10.37,2013-04-02 00:09:00,
2013-04-01 19:14:00,43.3,19.4,30.14,NNW,348,9.2,9.2,38,0.00,CLR,,0.00,WeatherDisplay:10.37,2013-04-02 00:14:00,
2013-04-01 19:19:00,43.2,19.3,30.14,NNW,348,6.9,6.9,38,0.00,CLR,,0.00,WeatherDisplay:10.37,2013-04-02 00:19:00,
2013-04-01 19:24:00,43.0,19.7,30.14,NNW,347,3.5,3.5,39,0.00,CLR,,0.00,WeatherDisplay:10.37,2013-04-02 00:24:00,
2013-04-01 19:29:00,42.9,19.6,30.14,NNW,347,3.5,3.5,39,0.00,CLR,,0.00,WeatherDisplay:10.37,2013-04-02 00:29:00,
2013-04-01 19:34:00,42.7,20.0,30.14,NNW,346,5.0,5.0,40,0.00,CLR,,0.00,WeatherDisplay:10.37,2013-04-02 00:34:00,
2013-04-01 19:39:00,42.6,19.9,30.14,NNW,347,4.6,4.6,40,0.00,CLR,,0.00,WeatherDisplay:10.37,2013-04-02 00:39:00,
2013-04-01 19:44:00,42.4,19.8,30.14,NNW,346,5.8,5.8,40,0.00,CLR,,0.00,WeatherDisplay:10.37,2013-04-02 00:44:00,
2013-04-01 19:50:00,42.2,19.6,30.14,NNW,347,5.8,5.8,40,0.00,CLR,,0.00,WeatherDisplay:10.37,2013-04-02 00:50:00,
2013-04-01 19:55:00,42.1,19.5,30.14,NNW,346,6.9,6.9,40,0.00,CLR,,0.00,WeatherDisplay:10.37,2013-04-02 00:55:00,
2013-04-01 20:00:00,42.0,20.0,30.14,NNW,347,9.2,9.2,41,0.00,CLR,,0.00,WeatherDisplay:10.37,2013-04-02 01:00:00,
2013-04-01 20:05:00,41.8,19.8,30.15,NNW,347,3.0,3.0,41,0.00,CLR,,0.00,WeatherDisplay:10.37,2013-04-02 01:05:00,
2013-04-01 20:10:00,41.6,19.6,30.15,NNW,347,3.5,3.5,41,0.00,CLR,,0.00,WeatherDisplay:10.37,2013-04-02 01:10:00,
2013-04-01 20:15:00,41.5,19.5,30.15,NNW,347,3.5,3.5,41,0.00,CLR,,0.00,WeatherDisplay:10.37,2013-04-02 01:15:00,
2013-04-01 20:20:00,41.3,19.3,30.15,NNW,346,4.6,4.6,41,0.00,CLR,,0.00,WeatherDisplay:10.37,2013-04-02 01:20:00,
2013-04-01 20:25:00,41.2,19.8,30.15,NNW,347,2.3,2.3,42,0.00,CLR,,0.00,WeatherDisplay:10.37,2013-04-02 01:25:00,
2013-04-01 20:30:00,41.1,19.7,30.16,NNW,347,3.5,3.5,42,0.00,CLR,,0.00,WeatherDisplay:10.37,2013-04-02 01:30:00,
2013-04-01 20:35:00,40.9,19.5,30.16,NNW,346,4.6,4.6,42,0.00,CLR,,0.00,WeatherDisplay:10.37,2013-04-02 01:35:00,
2013-04-01 20:40:00,40.8,19.5,30.16,NNW,346,2.3,2.3,42,0.00,CLR,,0.00,WeatherDisplay:10.37,2013-04-02 01:40:00,
2013-04-01 20:45:00,40.6,19.8,30.16,NNW,347,3.5,3.5,43,0.00,CLR,,0.00,WeatherDisplay:10.37,2013-04-02 01:45:00,
2013-04-01 20:50:00,40.5,19.7,30.17,NNW,347,2.3,2.3,43,0.00,CLR,,0.00,WeatherDisplay:10.37,2013-04-02 01:50:00,
2013-04-01 20:55:00,40.4,19.6,30.17,NNW,347,2.3,2.3,43,0.00,CLR,,0.00,WeatherDisplay:10.37,2013-04-02 01:55:00,
2013-04-01 21:00:00,40.2,20.0,30.17,NNW,347,3.5,3.5,44,0.00,CLR,,0.00,WeatherDisplay:10.37,2013-04-02 02:00:00,
2013-04-01 21:05:00,40.1,19.9,30.17,NNW,346,2.3,2.3,44,0.00,CLR,,0.00,WeatherDisplay:10.37,2013-04-02 02:05:00,
2013-04-01 21:10:00,40.0,19.8,30.17,NNW,346,4.6,4.6,44,0.00,CLR,,0.00,WeatherDisplay:10.37,2013-04-02 02:10:00,
2013-04-01 21:15:00,39.9,19.7,30.17,NNW,347,1.0,3.0,44,0.00,CLR,,0.00,WeatherDisplay:10.37,2013-04-02 02:15:00,
2013-04-01 21:20:00,39.8,20.2,30.18,NNW,346,3.5,0.0,45,0.00,CLR,,0.00,WeatherDisplay:10.37,2013-04-02 02:20:00,
2013-04-01 21:25:00,39.7,20.1,30.18,NNW,346,2.3,2.3,45,0.00,CLR,,0.00,WeatherDisplay:10.37,2013-04-02 02:25:00,
2013-04-01 21:30:00,39.5,19.9,30.18,NNW,347,2.3,2.3,45,0.00,CLR,,0.00,WeatherDisplay:10.37,2013-04-02 02:30:00,
2013-04-01 21:35:00,39.4,20.3,30.19,NNW,347,3.5,3.5,46,0.00,CLR,,0.00,WeatherDisplay:10.37,2013-04-02 02:35:00,
2013-04-01 21:40:00,39.3,20.2,30.19,NNW,347,3.5,3.5,46,0.00,CLR,,0.00,WeatherDisplay:10.37,2013-04-02 02:40:00,
2013-04-01 21:45:00,39.2,20.1,30.19,NNW,347,3.5,3.5,46,0.00,CLR,,0.00,WeatherDisplay:10.37,2013-04-02 02:45:00,
2013-04-01 21:50:00,39.1,20.0,30.19,NNW,347,0.0,2.0,46,0.00,CLR,,0.00,WeatherDisplay:10.37,2013-04-02 02:50:00,
2013-04-01 21:55:00,38.8,19.8,30.20,NNW,346,1.2,1.2,46,0.00,CLR,,0.00,WeatherDisplay:10.37,2013-04-02 02:55:00,
2013-04-01 22:00:00,38.7,20.2,30.20,NNW,347,0.0,3.0,47,0.00,CLR,,0.00,WeatherDisplay:10.37,2013-04-02 03:00:00,
2013-04-01 22:05:00,38.5,20.0,30.20,NNW,346,3.5,3.5,47,0.00,CLR,,0.00,WeatherDisplay:10.37,2013-04-02 03:05:00,
2013-04-01 22:10:00,38.4,19.9,30.20,NNW,346,1.2,1.2,47,0.00,CLR,,0.00,WeatherDisplay:10.37,2013-04-02 03:10:00,
2013-04-01 22:15:00,38.2,20.2,30.21,NNW,347,3.5,3.5,48,0.00,CLR,,0.00,WeatherDisplay:10.37,2013-04-02 03:15:00,
2013-04-01 22:20:00,38.1,20.1,30.21,NNW,347,0.0,0.0,48,0.00,CLR,,0.00,WeatherDisplay:10.37,2013-04-02 03:20:00,
2013-04-01 22:25:00,37.9,20.4,30.21,NNW,346,2.3,2.3,49,0.00,CLR,,0.00,WeatherDisplay:10.37,2013-04-02 03:25:00,
2013-04-01 22:30:00,37.8,20.3,30.21,NNW,347,2.3,2.3,49,0.00,CLR,,0.00,WeatherDisplay:10.37,2013-04-02 03:30:00,
2013-04-01 22:35:00,37.6,20.1,30.21,NNW,347,1.2,1.2,49,0.00,CLR,,0.00,WeatherDisplay:10.37,2013-04-02 03:35:00,
2013-04-01 22:40:00,37.4,20.4,30.21,NNW,346,2.3,2.3,50,0.00,CLR,,0.00,WeatherDisplay:10.37,2013-04-02 03:40:00,
2013-04-01 22:45:00,37.2,20.2,30.21,NNW,346,0.0,0.0,50,0.00,CLR,,0.00,WeatherDisplay:10.37,2013-04-02 03:45:00,
2013-04-01 22:50:00,37.0,20.5,30.22,NNW,347,0.0,0.0,51,0.00,CLR,,0.00,WeatherDisplay:10.37,2013-04-02 03:50:00,
2013-04-01 22:55:00,36.8,20.3,30.22,NNW,347,0.0,0.0,51,0.00,CLR,,0.00,WeatherDisplay:10.37,2013-04-02 03:55:00,
2013-04-01 23:00:00,36.7,20.3,30.21,NNW,346,1.2,1.2,51,0.00,CLR,,0.00,WeatherDisplay:10.37,2013-04-02 04:00:00,
2013-04-01 23:05:00,36.6,20.2,30.22,NNW,347,0.0,0.0,51,0.00,CLR,,0.00,WeatherDisplay:10.37,2013-04-02 04:05:00,
2013-04-01 23:10:00,36.3,20.3,30.22,NNW,347,0.0,0.0,52,0.00,CLR,,0.00,WeatherDisplay:10.37,2013-04-02 04:10:00,
2013-04-01 23:15:00,36.0,20.5,30.22,NNW,347,0.0,1.0,53,0.00,CLR,,0.00,WeatherDisplay:10.37,2013-04-02 04:15:00,
2013-04-01 23:20:00,35.7,20.2,30.22,NNW,347,1.2,0.0,53,0.00,CLR,,0.00,WeatherDisplay:10.37,2013-04-02 04:20:00,
2013-04-01 23:25:00,35.5,20.0,30.22,NNW,347,0.0,1.0,53,0.00,CLR,,0.00,WeatherDisplay:10.37,2013-04-02 04:25:00,
2013-04-01 23:30:00,35.3,19.9,30.22,NNW,346,2.3,2.3,53,0.00,CLR,,0.00,WeatherDisplay:10.37,2013-04-02 04:30:00,
2013-04-01 23:35:00,35.2,19.8,30.22,NNW,346,0.0,3.0,53,0.00,CLR,,0.00,WeatherDisplay:10.37,2013-04-02 04:35:00,
2013-04-01 23:40:00,35.2,19.8,30.22,NNW,347,1.2,0.0,53,0.00,CLR,,0.00,WeatherDisplay:10.37,2013-04-02 04:40:00,
2013-04-01 23:45:00,35.2,19.8,30.22,NNW,346,0.0,0.9,53,0.00,CLR,,0.00,WeatherDisplay:10.37,2013-04-02 04:45:00,
2013-04-01 23:50:00,35.2,19.8,30.22,NNW,347,2.0,2.0,53,0.00,CLR,,0.00,WeatherDisplay:10.37,2013-04-02 04:50:00,
2013-04-01 23:55:00,35.3,19.4,30.22,NNW,347,0.0,3.0,52,0.00,CLR,,0.00,WeatherDisplay:10.37,2013-04-02 04:55:00,